TimeCST,TemperatureF,Dew PointF,Humidity,Sea Level PressureIn,VisibilityMPH,Wind Direction,Wind SpeedMPH,Gust SpeedMPH,PrecipitationIn,Events,Conditions,WindDirDegrees,DateUTC
12:15 AM,51.6,38.7,61,30.08,10.0,NE,16.1,21.9,N/A,,Overcast,40,2013-01-14 06:15:00
12:35 AM,51.3,38.7,62,30.08,10.0,NNE,16.1,23.0,N/A,,Overcast,30,2013-01-14 06:35:00
12:55 AM,51.1,39.0,63,30.08,10.0,NE,13.8,-,N/A,,Overcast,40,2013-01-14 06:55:00
1:15 AM,50.9,39.0,64,30.08,10.0,NE,13.8,-,N/A,,Overcast,40,2013-01-14 07:15:00
1:35 AM,50.9,39.0,64,30.08,10.0,NNE,16.1,-,N/A,,Overcast,30,2013-01-14 07:35:00
1:55 AM,50.7,39.2,65,30.09,10.0,NE,15.0,19.6,N/A,,Overcast,40,2013-01-14 07:55:00
2:15 AM,50.5,39.2,65,30.09,10.0,NE,12.7,-,N/A,,Overcast,40,2013-01-14 08:15:00
2:35 AM,50.4,39.2,66,30.08,10.0,NNE,15.0,-,N/A,,Overcast,20,2013-01-14 08:35:00
2:55 AM,50.2,39.0,66,30.10,10.0,North,10.4,-,N/A,,Overcast,10,2013-01-14 08:55:00
3:35 AM,49.5,38.1,65,30.10,10.0,North,11.5,-,N/A,,Overcast,360,2013-01-14 09:35:00
4:15 AM,49.1,37.2,64,30.10,10.0,North,16.1,-,N/A,,Overcast,10,2013-01-14 10:15:00
4:35 AM,48.6,37.0,64,30.11,10.0,North,13.8,19.6,N/A,,Overcast,360,2013-01-14 10:35:00
4:55 AM,48.0,36.9,65,30.10,10.0,North,17.3,23.0,N/A,,Overcast,360,2013-01-14 10:55:00
5:15 AM,46.9,37.2,69,30.11,10.0,North,15.0,-,N/A,,Overcast,350,2013-01-14 11:15:00
5:35 AM,46.4,37.6,71,30.11,10.0,North,15.0,19.6,N/A,,Overcast,360,2013-01-14 11:35:00
5:55 AM,45.7,37.9,74,30.12,10.0,North,15.0,-,N/A,,Overcast,360,2013-01-14 11:55:00
6:15 AM,45.5,38.1,75,30.12,10.0,North,16.1,20.7,N/A,,Overcast,360,2013-01-14 12:15:00
6:35 AM,45.1,37.9,76,30.12,10.0,North,15.0,20.7,N/A,,Overcast,360,2013-01-14 12:35:00
6:55 AM,44.8,37.8,76,30.13,10.0,North,13.8,21.9,N/A,,Overcast,360,2013-01-14 12:55:00
7:15 AM,44.2,37.8,78,30.14,10.0,North,17.3,21.9,N/A,,Overcast,10,2013-01-14 13:15:00
7:35 AM,43.9,37.8,79,30.15,10.0,North,16.1,-,N/A,,Overcast,360,2013-01-14 13:35:00
7:55 AM,43.9,37.2,77,30.15,10.0,North,17.3,-,N/A,,Overcast,10,2013-01-14 13:55:00
8:15 AM,44.1,37.0,76,30.16,10.0,North,19.6,24.2,N/A,,Overcast,10,2013-01-14 14:15:00
8:35 AM,44.1,36.5,75,30.17,10.0,North,19.6,-,N/A,,Overcast,360,2013-01-14 14:35:00
8:55 AM,44.1,36.1,74,30.18,10.0,North,17.3,-,N/A,,Overcast,10,2013-01-14 14:55:00
9:15 AM,43.9,36.5,75,30.18,10.0,North,16.1,-,N/A,,Overcast,360,2013-01-14 15:15:00
9:35 AM,43.7,36.5,76,30.19,10.0,North,17.3,20.7,N/A,,Overcast,360,2013-01-14 15:35:00
9:55 AM,43.7,36.7,76,30.19,10.0,North,17.3,-,N/A,,Overcast,10,2013-01-14 15:55:00
10:15 AM,43.9,37.8,79,30.19,10.0,North,15.0,-,N/A,,Overcast,10,2013-01-14 16:15:00
10:35 AM,44.1,38.3,80,30.18,10.0,NNE,17.3,-,N/A,,Overcast,20,2013-01-14 16:35:00
10:55 AM,44.4,38.8,81,30.17,10.0,NNE,13.8,19.6,N/A,,Overcast,20,2013-01-14 16:55:00
11:15 AM,44.8,39.2,81,30.16,10.0,NNE,13.8,-,N/A,,Overcast,20,2013-01-14 17:15:00
11:35 AM,45.1,39.4,80,30.16,10.0,NNE,12.7,-,N/A,,Overcast,30,2013-01-14 17:35:00
11:55 AM,45.1,39.7,81,30.15,10.0,NNE,13.8,-,N/A,,Overcast,30,2013-01-14 17:55:00
12:15 PM,45.3,39.9,81,30.14,10.0,North,12.7,17.3,N/A,,Overcast,10,2013-01-14 18:15:00
12:35 PM,45.0,39.9,82,30.14,10.0,North,10.4,-,N/A,,Overcast,10,2013-01-14 18:35:00
12:55 PM,44.4,40.6,87,30.12,4.0,North,10.4,-,N/A,,Overcast,10,2013-01-14 18:55:00
1:15 PM,44.2,41.7,91,30.12,4.0,North,10.4,-,N/A,,Overcast,360,2013-01-14 19:15:00
1:35 PM,44.4,42.3,92,30.11,4.0,North,11.5,-,N/A,,Overcast,10,2013-01-14 19:35:00
2:15 PM,44.6,42.3,91,30.10,10.0,North,11.5,-,N/A,,Overcast,10,2013-01-14 20:15:00
2:35 PM,45.0,41.9,89,30.10,10.0,North,11.5,-,N/A,,Overcast,10,2013-01-14 20:35:00
2:55 PM,45.5,41.7,87,30.10,10.0,NNE,10.4,-,N/A,,Overcast,20,2013-01-14 20:55:00
3:15 PM,45.9,41.5,85,30.10,10.0,North,11.5,-,N/A,,Overcast,10,2013-01-14 21:15:00
3:35 PM,46.2,41.5,84,30.10,10.0,North,10.4,-,N/A,,Overcast,10,2013-01-14 21:35:00
4:15 PM,46.6,41.4,82,30.11,10.0,NNE,10.4,-,N/A,,Overcast,30,2013-01-14 22:15:00
4:35 PM,46.9,41.2,80,30.12,10.0,NNE,9.2,-,N/A,,Overcast,20,2013-01-14 22:35:00
4:55 PM,47.3,41.2,79,30.11,10.0,NNE,9.2,-,N/A,,Overcast,30,2013-01-14 22:55:00
5:15 PM,47.7,41.4,79,30.12,10.0,NNE,10.4,-,N/A,,Overcast,30,2013-01-14 23:15:00
5:35 PM,47.8,41.5,79,30.11,10.0,NE,11.5,55.2,N/A,,Overcast,40,2013-01-14 23:35:00
5:55 PM,48.2,41.7,78,30.12,10.0,NE,9.2,-,N/A,,Overcast,40,2013-01-14 23:55:00
6:15 PM,48.2,41.9,79,30.12,10.0,NE,8.1,-,N/A,,Overcast,40,2013-01-15 00:15:00
6:35 PM,48.2,41.9,79,30.12,10.0,NE,10.4,-,N/A,,Overcast,40,2013-01-15 00:35:00
6:55 PM,48.2,41.9,79,30.12,10.0,NE,8.1,-,N/A,,Overcast,40,2013-01-15 00:55:00
7:15 PM,48.2,42.1,79,30.13,10.0,NE,8.1,-,N/A,,Overcast,40,2013-01-15 01:15:00
7:35 PM,48.4,42.3,79,30.12,10.0,NE,10.4,-,N/A,,Overcast,40,2013-01-15 01:35:00
7:55 PM,48.2,42.4,80,30.12,10.0,NE,10.4,-,N/A,,Overcast,40,2013-01-15 01:55:00
8:15 PM,47.8,43.0,83,30.12,10.0,NE,10.4,-,N/A,,Overcast,40,2013-01-15 02:15:00
8:35 PM,47.3,43.3,86,30.12,10.0,NE,8.1,-,N/A,,Overcast,50,2013-01-15 02:35:00
8:55 PM,46.9,43.7,88,30.12,10.0,NE,5.8,-,N/A,,Overcast,40,2013-01-15 02:55:00
9:15 PM,47.1,44.1,89,30.11,10.0,NE,8.1,-,N/A,,Overcast,40,2013-01-15 03:15:00
9:35 PM,47.5,44.1,88,30.11,10.0,NNE,6.9,-,N/A,,Overcast,30,2013-01-15 03:35:00
9:55 PM,47.5,44.1,88,30.11,10.0,NNE,6.9,-,N/A,,Overcast,30,2013-01-15 03:55:00
10:15 PM,47.7,44.1,87,30.10,10.0,NNE,8.1,-,N/A,,Overcast,30,2013-01-15 04:15:00
10:35 PM,47.5,44.4,89,30.10,7.0,NE,8.1,-,N/A,,Overcast,40,2013-01-15 04:35:00
10:55 PM,47.5,44.6,90,30.08,10.0,NE,9.2,-,N/A,,Overcast,40,2013-01-15 04:55:00
11:15 PM,47.5,44.6,90,30.08,10.0,NNE,6.9,-,N/A,,Overcast,30,2013-01-15 05:15:00
11:35 PM,47.3,44.6,90,30.07,7.0,NNE,8.1,-,N/A,,Overcast,30,2013-01-15 05:35:00
11:55 PM,47.3,44.8,91,30.08,7.0,NNE,6.9,-,N/A,,Overcast,30,2013-01-15 05:55:00